Find Starlink 35384

NORAD ID: 65884 Int'l Des: 2025-224 Owner: SPXS Country: US Constellation: starlink operational
LEOCIRCULAR

現在のビュー

3D地球を読み込み中...

Starlink 35384について

説明を読み込み中...

次回通過

Passes for default location (London). Set your location on the main map for personalized predictions.

高度履歴

Loading altitude history...

軌道要素

1 65884U 25224C 26150.98977329 .00022870 00000-0 78094-3 0 9994
2 65884 53.1597 349.1580 0001246 92.8873 267.2270 15.30240027 37429
Epoch: May 30, 2026 • Age: 14 hours

現在のステータス

高度 493.9 km
速度 7.62 km/s
衛星直下点 -52.04°S, 178.07°W
打ち上げ日 Oct 7, 2025
運用期間 0.6 years
タイプ internet

技術仕様

分類 Payload
質量 575.00 kg
乾燥質量 530.00 kg
総質量 575.00 kg
長さ 0.30 m
直径 4.10 m
スパン 29.00 m
形状 Box + pan
製造者 SPXS
バスタイプ Starlink V2MO
フェーズステータス In Orbit
所有者/国 SPXS/US

Most Searched